Regional Weather Roundup
Issued by NWS Jackson, KY

Home | Current Version | Previous Version | Text Only | Print | Product List | Glossary Off
Versions: 1 2 3 4 5 6 7 8 9 10 11 12 13 14 15 16 17 18 19 20 21 22 23 24 25 26 27 28 29 30 31 32 33 34 35 36 37 38 39 40 41 42 43 44 45 46 47 48 49 50

000
ASUS43 KJKL 240110
RWRJKL

EAST KENTUCKY HOURLY WEATHER ROUNDUP
NATIONAL WEATHER SERVICE JACKSON KY
900 PM EDT WED JUL 23 2014

NOTE: "FAIR" INDICATES FEW OR NO CLOUDS BELOW 12,000 FEET WITH
NO SIGNIFICANT WEATHER AND/OR OBSTRUCTIONS TO VISIBILITY.

* THESE REPORTS ARE NOT UNDER NWS QUALITY CONTROL AND MAY NOT
  REPORT WEATHER SUCH AS PRECIPITATION AND FOG.

KYZ079-080-083-085-087-088-110-112-115-119-120-240200
...EASTERN KENTUCKY...

CITY           SKY/WX    TMP DP  RH WIND       PRES   REMARKS
JACKSON        LGT RAIN  69  67  93 CALM      30.01R FOG
LONDON         LGT RAIN  76  69  79 N3        30.01R
SOMERSET*      TSTM      70  70 100 NE5       30.02F
MONTICELLO*    CLOUDY    74  71  90 NE8       30.02R
MIDDLESBORO*   PTCLDY    73  70  90 CALM      30.00S
HARLAN APT*    PTCLDY    68  68 100 MISG      30.02S
PIKEVILLE APT* CLOUDY    73  66  78 W7        30.01R
BIG SANDY*     LGT RAIN  72  68  89 W7        30.00R
MOREHEAD APT*    N/A     77  66  69 CALM      30.00S
$$

KYZ035-036-041-042-044-050-067-078-099-240200
...CENTRAL KENTUCKY...

CITY           SKY/WX    TMP DP  RH WIND       PRES   REMARKS
MT STERLING*   MOCLDY    77  72  83 CALM      29.98F
FLEMING/MASON* CLOUDY    75  66  73 NE6       29.98F
DANVILLE*      CLOUDY    70  70 100 S7        30.00R
RICHMOND*      CLOUDY    73  66  78 SW7       29.98S
LEXINGTON      MOCLDY    79  69  71 SW7       29.98R
FRANKFORT      PTCLDY    79  68  69 CALM      29.96S
$$

KYZ091>093-OHZ055-061-077-WVZ005-015-034-035-042-240200
...SOUTHERN OHIO/WEST VIRGINIA...

CITY           SKY/WX    TMP DP  RH WIND       PRES   REMARKS
COVINGTON      CLOUDY    77  68  73 N9        29.98R
COLUMBUS       CLOUDY    70  64  81 N15G23    30.00R
DAYTON         CLOUDY    69  66  90 NE12      30.03S
WILMINGTON     CLOUDY    71  66  84 N14G20    30.00R
HUNTINGTON     MOCLDY    79  65  62 N8G16     29.95R
CHARLESTON     TSTM      72  70  93 N7        29.97R FOG
PINEVILLE*     PTCLDY    74  73  97 MISG      30.05S
BECKLEY        MOCLDY    74  69  85 SW9       30.03R
BLUEFIELD      PTCLDY    73  66  78 W6        30.07R
$$

VAZ002-007-008-TNZ017-027-036-066-071-240200
...SOUTHWEST VIRGINIA/EAST TENNESSEE...

CITY           SKY/WX    TMP DP  RH WIND       PRES   REMARKS
WISE*          PTCLDY    68  64  88 NW3       30.08F
JONESVILLE*      N/A     72  72 100 CALM      30.03S
ABINGDON*      CLOUDY    75  69  82 NW3       30.05R
BRISTOL        MOCLDY    76  68  76 NW9       30.00R
KNOXVILLE      MOCLDY    77  69  76 W3        29.98R
OAK RIDGE      CLEAR     74  70  87 CALM      30.00S
CROSSVILLE     PTCLDY    72  68  87 SW5       30.05S
NASHVILLE      MOCLDY    83  69  62 W6        29.97R
$$

...KEY TO REMARKS...
VSB - VISIBILITY IN MILES
WCI - WIND CHILL INDEX
HX  - HEAT INDEX

$$



USA.gov is the U.S. government's official web portal to all federal, state and local government web resources and services.